Regional Weather Roundup
Issued by NWS

Home | Current Version | Previous Version | Text Only | Print | Product List | Glossary On
Versions: 1 2 3 4 5 6 7 8 9 10 11 12 13 14 15 16 17 18 19 20 21 22 23 24 25 26 27 28 29 30 31 32 33 34 35 36 37 38 39 40 41 42 43 44 45 46 47 48 49 50
227
ASUS43 KMPX 201601
RWRMN
WEATHER ROUNDUP FOR MINNESOTA
NATIONAL WEATHER SERVICE TWIN CITIES/CHANHASSEN MN
1100 AM CDT SUN AUG 20 2017


NOTE: "FAIR" INDICATES FEW OR NO CLOUDS BELOW 12,000 FEET WITH NO
SIGNIFICANT WEATHER AND/OR OBSTRUCTIONS TO VISIBILITY. N/A MEANS
CURRENT SKY AND/OR WEATHER CONDITIONS ARE NOT AVAILABLE.

MNZ060>063-068>070-201700-
   Twin Cities Metro

CITY           SKY/WX    TMP DP  RH WIND       PRES   REMARKS
TWIN CITIES    MOSUNNY   78  65  63 SW9       29.91S
ST PAUL        SUNNY     77  68  73 VRB7      29.91S
CRYSTAL        SUNNY     77  64  64 SW8       29.90R
BLAINE         PTSUNNY   79  66  65 SW8       29.91R
LAKEVILLE      SUNNY     77  66  69 SW3       29.94R
EDEN PRAIRIE   SUNNY     78  67  68 SW9       29.91S
SOUTH ST PAUL  SUNNY     78  66  66 SW7       29.92S
LAKE ELMO      FAIR      77  68  73 SW9       29.92F
$$
MNZ001>005-007-008-013>017-022>024-027-028-201700-
   Northwest Minnesota

CITY           SKY/WX    TMP DP  RH WIND       PRES   REMARKS
BEMIDJI        PTSUNNY   66  54  63 NW12G18   29.95R
HALLOCK        SUNNY     72  46  40 NW10G17   29.94S
ROSEAU         SUNNY     72  57  60 W10G16    29.92R
WARROAD        SUNNY     72  57  60 NW9       29.91R
CROOKSTON      PTSUNNY   66  48  52 N10       29.98R
FOSSTON        PTSUNNY   70  54  56 NW9       29.97R
DETROIT LAKES  CLOUDY    63  54  72 NW8       29.99R
MOORHEAD       CLOUDY    64  54  68 N10       29.98S
PARK RAPIDS    CLOUDY    69  57  65 NW10      29.95R
MAHNOMEN       FAIR      67  56  67 NW7       29.97S
$$
MNZ006-009>011-018-025>026-201700-
   North Central Minnesota

CITY           SKY/WX    TMP DP  RH WIND       PRES   REMARKS
BAUDETTE       CLOUDY    70  53  54 NW17      29.89R
FLAG ISLAND    HAZE      70  50  49 NW12      29.87S VSB 1
INTL FALLS     MOSUNNY   73  61  65 W10       29.86R
WASKISH        CLOUDY    72  54  53 NW9       29.92R
BIG FORK       CLOUDY    70  57  64 W3        29.89S
LONGVILLE      CLOUDY    68  59  73 NW9       29.93R
GRAND RAPIDS   PTSUNNY   71  62  73 NW16      29.91R
CRANE LAKE     CLOUDY    66  63  88 W3        29.86R
ORR            CLOUDY    68  59  73 NW12      29.84R
COOK           CLOUDY    68  63  83 W13       29.87R
WALKER         FAIR      67  56  68 NW8       29.94R
$$
MNZ012-019>021-037-201700-
   Northeast Minnesota

CITY           SKY/WX    TMP DP  RH WIND       PRES   REMARKS
DULUTH         CLOUDY    68  65  90 W13       29.89R
ELY            CLOUDY    66  63  88 W10       29.85S
HIBBING        CLOUDY    71  64  78 W9        29.87S
EVELETH        PTSUNNY   68  61  79 W7        29.88S
DULUTH HARBOR  CLOUDY    72  66  83 SW13      29.88R
TWO HARBORS    CLOUDY    73  66  78 W7G18     29.85R
SILVER BAY     CLOUDY    73  66  78 W6        29.84R
GRAND MARAIS     N/A     66  63  90 SW6       29.83F
$$
MNZ029>031-032-039>041-046>048-054>057-064-201700-
   West Central Minnesota

CITY           SKY/WX    TMP DP  RH WIND       PRES   REMARKS
FERGUS FALLS   CLOUDY    64  55  72 N6        29.98R
WHEATON        CLOUDY    64  54  68 N10       29.98R
MORRIS         CLOUDY    64  57  77 N9        29.97R
ALEXANDRIA     CLOUDY    68  60  75 N6        29.98R
ELBOW LAKE     FAIR      63  56  80 N14G21    29.96F
WADENA         CLOUDY    64  57  77 NW10      29.95R
GLENWOOD       MOSUNNY   72  63  73 N8        29.97S
APPLETON       MOSUNNY   68  55  64 N9        29.97S
BENSON         CLOUDY    70  61  73 N7        29.98S
ORTONVILLE     CLOUDY    66  54  63 MISG      29.98R
MADISON        CLOUDY    70  59  68 N12       29.97S
WILLMAR        FAIR      73  66  78 NW9       29.97R
$$
MNZ033>034-036-042>043-049>051-058-059-201700-
   Central Minnesota

CITY           SKY/WX    TMP DP  RH WIND       PRES   REMARKS
ST CLOUD       SUNNY     75  68  78 NW8       29.93R
SAUK CENTRE    FAIR      71  62  72 NW8       29.96R
PAYNESVILLE    MOSUNNY   73  67  81 NW8       29.97R
AITKIN         CLOUDY    72  63  73 NW6       29.90R
PINE RIVER     CLOUDY    66  57  72 NW9       29.96R
BRAINERD       CLOUDY    70  62  76 NW10      29.92R
STAPLES        MOSUNNY   66  57  72 NW10      29.94R
LONG PRAIRIE   FAIR      70  61  73 W6        29.96R
LITTLE FALLS   MOSUNNY   72  61  68 NW6       29.94R
LITCHFIELD     SUNNY     75  70  83 W7        29.95R
BUFFALO        SUNNY     76  66  71 W8        29.94R
MAPLE LAKE     SUNNY     77  69  75 W6        29.94R
HUTCHINSON     SUNNY     76  69  77 W9        29.96R
$$
MNZ037-044-045-052-053-201700-
   East Central Minnesota

CITY           SKY/WX    TMP DP  RH WIND       PRES   REMARKS
PRINCETON      MOSUNNY   77  68  73 W6        29.92R
MORA           MOSUNNY   72  64  78 W5        29.92S
CAMBRIDGE      MOSUNNY   79  66  65 W6        29.92R
RUSH CITY      MOSUNNY   76  67  74 W5        29.91R HAZE
MOOSE LAKE     CLOUDY    70  63  78 W6        29.89R
HINCKLEY       CLOUDY    72  68  88 W9        29.91R
CLOQUET        CLOUDY    70  63  78 W8        29.90R
MCGREGOR       MOSUNNY   70  63  78 NW5       29.91R
$$
MNZ071>073-080-081-089-090-097-098-201700-
   Southwest Minnesota

CITY           SKY/WX    TMP DP  RH WIND       PRES   REMARKS
MONTEVIDEO     PTSUNNY   72  64  78 N9        29.97R
GRANITE FALLS  CLOUDY    73  64  73 NW10      29.98R
CANBY          CLOUDY    69  59  69 CALM      29.98F
MARSHALL       SUNNY     71  63  75 N12       29.98R
REDWOOD FALLS  CLOUDY    74  66  76 W6        29.95R
OLIVIA         SUNNY     73  68  83 NW8       29.95R
PIPESTONE      SUNNY     75  66  73 E7        29.98S
WINDOM         SUNNY     77  64  65 CALM      29.98R
WORTHINGTON    SUNNY     76  65  68 W5        29.99
JACKSON        SUNNY     75  64  69 CALM      29.99R
TRACY          SUNNY     73  66  80 N9        29.98R
SLAYTON        SUNNY     72  62  70 N7        29.99S
$$
MNZ065>067-074>077-082>085-091>093-201700-
   South Central Minnesota

CITY           SKY/WX    TMP DP  RH WIND       PRES   REMARKS
MANKATO        SUNNY     76  67  73 SW10      29.96R
NEW ULM        SUNNY     75  66  73 W8        29.95R
ST JAMES       MOSUNNY   79  66  65 SW10      29.97R
FAIRMONT       SUNNY     76  65  68 SW9       29.98R
GLENCOE        SUNNY     76  70  81 SW8       29.93R
FARIBAULT      SUNNY     79  68  69 S6        29.96R
OWATONNA       SUNNY     77  68  73 S9        29.97R
WASECA         SUNNY     77  68  73 S9        29.98R
ALBERT LEA     SUNNY     79  66  65 SW7       29.98S
$$
MNZ078>079-086>088-094>096-201700-
   Southeast Minnesota

CITY           SKY/WX    TMP DP  RH WIND       PRES   REMARKS
ROCHESTER      CLOUDY    73  68  84 S8        30.00S
RED WING       CLOUDY    79  64  61 S6        29.93R
STANTON        SUNNY     78  66  66 SW13G18   29.94R
DODGE CENTER   CLOUDY    73  64  73 S13G18    29.99R
WINONA         CLOUDY    73  64  73 CALM      29.98S
AUSTIN         CLOUDY    73  66  78 S7        29.99S
PRESTON        CLOUDY    70  64  81 S8        30.01F
$$
ABBREVIATIONS USED IN REMARKS
   TC - TEMPERATURES IN CELSIUS
  WCI - WIND CHILL INDEX
   HX - HEAT INDEX
  VSB - VISIBILITY
$$




USA.gov is the U.S. government's official web portal to all federal, state and local government web resources and services.